• In Uzbekistan
  • List of Countries
  • For 7 days
  • Water Temperature
  • Satellite Maps
  • Weather Map
  • Weather Widgets
  • user-avatar
    Login

    Hourly Weather Río Gallegos

    Today, 22 August, Tuesday

    Time Temperature Precipitation Wind Pressure Humidity
    00:00 +8°C° 0.1 mm 13 mps 718 mmHg 61%
    01:00 +8°C° 0.1 mm 14 mps 718 mmHg 60%
    02:00 +6°C° 0.1 mm 15 mps 716 mmHg 55%
    03:00 +6°C° 0.1 mm 16 mps 715 mmHg 49%
    04:00 +5°C° 0.1 mm 17 mps 713 mmHg 44%
    05:00 +3°C° 0 mm 17 mps 714 mmHg 49%
    06:00 +3°C° 0 mm 17 mps 715 mmHg 55%
    07:00 +2°C° 0 mm 18 mps 715 mmHg 60%
    08:00 +2°C° 0 mm 17 mps 717 mmHg 57%
    09:00 +2°C° 0 mm 16 mps 718 mmHg 53%
    10:00 +2°C° 0 mm 15 mps 720 mmHg 50%
    11:00 +2°C° 0.1 mm 16 mps 721 mmHg 47%
    12:00 +2°C° 0.1 mm 16 mps 722 mmHg 44%
    13:00 +2°C° 0.1 mm 16 mps 723 mmHg 42%
    14:00 +2°C° 0 mm 15 mps 724 mmHg 44%
    15:00 +1°C° 0 mm 15 mps 726 mmHg 45%
    16:00 +1°C° 0 mm 15 mps 727 mmHg 47%
    17:00 0°C° 0 mm 15 mps 728 mmHg 51%
    18:00 -1°C° 0 mm 14 mps 729 mmHg 56%
    19:00 -1°C° 0 mm 14 mps 731 mmHg 61%
    20:00 -1°C° 0 mm 14 mps 731 mmHg 60%
    21:00 -2°C° 0 mm 14 mps 732 mmHg 59%
    22:00 -2°C° 0 mm 14 mps 733 mmHg 59%
    23:00 -2°C° 0 mm 14 mps 734 mmHg 60%

    Tomorrow, 23 August, Wednesday

    Time Temperature Precipitation Wind Pressure Humidity
    00:00 -2°C° 0 mm 14 mps 735 mmHg 60%
    01:00 -2°C° 0 mm 14 mps 736 mmHg 61%
    02:00 -2°C° 0 mm 13 mps 737 mmHg 62%
    03:00 -4°C° 0 mm 13 mps 737 mmHg 62%
    04:00 -3°C° 0 mm 12 mps 738 mmHg 63%
    05:00 -3°C° 0 mm 11 mps 739 mmHg 62%
    06:00 -3°C° 0 mm 10 mps 740 mmHg 62%
    07:00 -3°C° 0 mm 10 mps 741 mmHg 61%
    08:00 -1°C° 0 mm 9 mps 742 mmHg 57%
    09:00 0°C° 0 mm 9 mps 743 mmHg 52%
    10:00 +2°C° 0 mm 8 mps 743 mmHg 47%
    11:00 +3°C° 0 mm 7 mps 743 mmHg 46%
    12:00 +4°C° 0 mm 6 mps 743 mmHg 44%
    13:00 +5°C° 0 mm 5 mps 743 mmHg 43%
    14:00 +4°C° 0 mm 6 mps 743 mmHg 46%
    15:00 +4°C° 0 mm 6 mps 743 mmHg 49%
    16:00 +4°C° 0 mm 6 mps 743 mmHg 53%
    17:00 +3°C° 0 mm 7 mps 742 mmHg 57%
    18:00 +2°C° 0 mm 8 mps 741 mmHg 61%
    19:00 +2°C° 0 mm 10 mps 741 mmHg 65%
    20:00 +2°C° 0.4 mm 10 mps 739 mmHg 68%
    21:00 +2°C° 0.4 mm 10 mps 738 mmHg 70%
    22:00 +2°C° 0.4 mm 10 mps 737 mmHg 72%
    23:00 +2°C° 0.2 mm 9 mps 736 mmHg 71%

    Day after tomorrow, 24 August, Thursday

    Time Temperature Precipitation Wind Pressure Humidity
    00:00 +2°C° 0.2 mm 9 mps 735 mmHg 70%
    01:00 +2°C° 0.2 mm 9 mps 733 mmHg 69%
    02:00 +2°C° 0.2 mm 10 mps 733 mmHg 72%
    03:00 0°C° 0.2 mm 12 mps 733 mmHg 75%
    04:00 -1°C° 0.2 mm 13 mps 732 mmHg 78%
    05:00 -1°C° 0.4 mm 13 mps 732 mmHg 78%
    06:00 -1°C° 0.4 mm 12 mps 733 mmHg 77%
    07:00 -1°C° 0.4 mm 11 mps 733 mmHg 76%
    08:00 -1°C° 0.1 mm 11 mps 733 mmHg 74%
    09:00 +1°C° 0.1 mm 10 mps 734 mmHg 71%
    10:00 +1°C° 0.1 mm 10 mps 734 mmHg 69%
    11:00 +2°C° 0 mm 10 mps 734 mmHg 69%
    12:00 +2°C° 0 mm 11 mps 735 mmHg 68%
    13:00 +2°C° 0 mm 11 mps 735 mmHg 68%
    14:00 +2°C° 0 mm 11 mps 736 mmHg 68%
    15:00 +2°C° 0 mm 11 mps 737 mmHg 69%
    16:00 +2°C° 0 mm 11 mps 738 mmHg 69%
    17:00 +1°C° 0 mm 11 mps 740 mmHg 68%
    18:00 -1°C° 0 mm 11 mps 741 mmHg 67%
    19:00 -2°C° 0 mm 12 mps 742 mmHg 66%
    20:00 -2°C° 0 mm 11 mps 743 mmHg 67%
    21:00 -2°C° 0 mm 11 mps 744 mmHg 69%
    22:00 -2°C° 0 mm 11 mps 745 mmHg 70%
    23:00 -3°C° 0 mm 10 mps 746 mmHg 72%

    25 August, Friday

    Time Temperature Precipitation Wind Pressure Humidity
    00:00 -3°C° 0 mm 9 mps 747 mmHg 74%
    01:00 -2°C° 0 mm 7 mps 748 mmHg 77%
    02:00 -2°C° 0 mm 6 mps 749 mmHg 78%
    03:00 -2°C° 0 mm 5 mps 750 mmHg 78%
    04:00 -2°C° 0 mm 4 mps 751 mmHg 79%
    05:00 -2°C° 0 mm 4 mps 751 mmHg 78%
    06:00 -2°C° 0 mm 4 mps 752 mmHg 76%
    07:00 -2°C° 0 mm 4 mps 752 mmHg 75%
    08:00 -1°C° 0 mm 4 mps 753 mmHg 68%
    09:00 0°C° 0 mm 4 mps 753 mmHg 60%
    10:00 +1°C° 0 mm 5 mps 753 mmHg 53%
    11:00 +2°C° 0 mm 5 mps 753 mmHg 50%
    12:00 +2°C° 0 mm 5 mps 753 mmHg 47%
    13:00 +3°C° 0 mm 5 mps 753 mmHg 45%
    14:00 +3°C° 0 mm 5 mps 753 mmHg 47%
    15:00 +4°C° 0 mm 4 mps 753 mmHg 50%
    16:00 +3°C° 0 mm 4 mps 753 mmHg 52%
    17:00 +3°C° 0 mm 4 mps 754 mmHg 56%
    18:00 +1°C° 0 mm 4 mps 754 mmHg 60%
    19:00 +1°C° 0 mm 4 mps 754 mmHg 64%
    20:00 0°C° 0 mm 4 mps 754 mmHg 66%
    21:00 0°C° 0 mm 4 mps 754 mmHg 69%
    22:00 +1°C° 0 mm 3 mps 754 mmHg 72%
    23:00 +1°C° 0 mm 3 mps 754 mmHg 71%

    26 August, Saturday

    Time Temperature Precipitation Wind Pressure Humidity
    00:00 +2°C° 0 mm 2 mps 754 mmHg 69%
    01:00 +2°C° 0 mm 2 mps 754 mmHg 67%
    02:00 +2°C° 0 mm 2 mps 754 mmHg 66%
    03:00 +1°C° 0 mm 3 mps 754 mmHg 65%
    04:00 +2°C° 0 mm 3 mps 753 mmHg 64%
    05:00 +2°C° 0 mm 3 mps 753 mmHg 68%
    06:00 +1°C° 0 mm 4 mps 753 mmHg 72%
    07:00 +1°C° 0 mm 4 mps 753 mmHg 75%
    08:00 +2°C° 0.1 mm 5 mps 754 mmHg 75%
    09:00 +3°C° 0.1 mm 5 mps 754 mmHg 75%
    10:00 +5°C° 0.1 mm 5 mps 754 mmHg 74%
    11:00 +3°C° 0.6 mm 6 mps 754 mmHg 77%
    12:00 +3°C° 0.6 mm 6 mps 754 mmHg 79%
    13:00 +3°C° 0.6 mm 6 mps 754 mmHg 82%
    14:00 +3°C° 0.4 mm 6 mps 754 mmHg 84%
    15:00 +3°C° 0.4 mm 6 mps 754 mmHg 86%
    16:00 +2°C° 0.4 mm 6 mps 754 mmHg 88%
    17:00 +2°C° 0.3 mm 6 mps 755 mmHg 89%
    18:00 +2°C° 0.3 mm 6 mps 755 mmHg 91%
    19:00 +2°C° 0.3 mm 6 mps 756 mmHg 92%
    20:00 +2°C° 0.1 mm 6 mps 756 mmHg 92%
    21:00 +2°C° 0.1 mm 6 mps 756 mmHg 93%
    22:00 +2°C° 0.1 mm 6 mps 756 mmHg 93%
    23:00 +1°C° 0.1 mm 6 mps 756 mmHg 93%

    27 August, Sunday

    Time Temperature Precipitation Wind Pressure Humidity
    00:00 +1°C° 0.1 mm 5 mps 756 mmHg 93%
    01:00 +1°C° 0.1 mm 5 mps 757 mmHg 93%
    02:00 0°C° 0 mm 5 mps 757 mmHg 92%
    03:00 0°C° 0 mm 5 mps 757 mmHg 90%
    04:00 0°C° 0 mm 5 mps 757 mmHg 89%
    05:00 -1°C° 0 mm 5 mps 757 mmHg 86%
    06:00 -1°C° 0 mm 5 mps 757 mmHg 84%
    07:00 -1°C° 0 mm 5 mps 757 mmHg 81%
    08:00 -1°C° 0 mm 6 mps 757 mmHg 74%
    09:00 0°C° 0 mm 7 mps 757 mmHg 66%
    10:00 +3°C° 0 mm 7 mps 757 mmHg 58%
    11:00 +2°C° 0 mm 8 mps 757 mmHg 56%
    12:00 +4°C° 0 mm 8 mps 757 mmHg 54%
    13:00 +5°C° 0 mm 8 mps 757 mmHg 52%
    14:00 +4°C° 0 mm 8 mps 757 mmHg 56%
    15:00 +4°C° 0 mm 8 mps 757 mmHg 59%
    16:00 +2°C° 0 mm 8 mps 757 mmHg 63%
    17:00 +3°C° 0 mm 7 mps 757 mmHg 66%
    18:00 +2°C° 0 mm 7 mps 757 mmHg 68%
    19:00 +1°C° 0 mm 6 mps 758 mmHg 71%
    20:00 0°C° 0 mm 7 mps 758 mmHg 70%
    21:00 0°C° 0 mm 8 mps 758 mmHg 69%
    22:00 0°C° 0 mm 8 mps 758 mmHg 67%
    23:00 0°C° 0.1 mm 8 mps 758 mmHg 67%
    Show more